• en Belgique
  • Liste des pays
  • À 7 jours
  • Température de l'eau
  • Carte satellitaire
  • Carte météo
  • Widgets météo
  • user-avatar
    Se connecter

    Météo par heure à Wavre

    Ce jour, 14 Novembre, Mercredi

    Heure Température Précipitation Vent Pression Humidité
    00:00 +7°C° 0 mm 3 m/s 766 mmHg 93%
    01:00 +7°C° 0 mm 3 m/s 765 mmHg 93%
    02:00 +7°C° 0 mm 3 m/s 765 mmHg 93%
    03:00 +7°C° 0 mm 3 m/s 765 mmHg 93%
    04:00 +7°C° 0 mm 3 m/s 765 mmHg 93%
    05:00 +5°C° 0 mm 3 m/s 765 mmHg 94%
    06:00 +5°C° 0 mm 3 m/s 765 mmHg 94%
    07:00 +7°C° 0 mm 3 m/s 765 mmHg 91%
    08:00 +8°C° 0 mm 3 m/s 765 mmHg 87%
    09:00 +8°C° 0 mm 4 m/s 765 mmHg 84%
    10:00 +10°C° 0 mm 4 m/s 764 mmHg 79%
    11:00 +11°C° 0 mm 4 m/s 764 mmHg 74%
    12:00 +12°C° 0 mm 3 m/s 764 mmHg 69%
    13:00 +12°C° 0 mm 3 m/s 764 mmHg 70%
    14:00 +13°C° 0 mm 2 m/s 763 mmHg 72%
    15:00 +12°C° 0 mm 2 m/s 763 mmHg 74%
    16:00 +10°C° 0 mm 2 m/s 763 mmHg 78%
    17:00 +9°C° 0 mm 2 m/s 763 mmHg 81%
    18:00 +8°C° 0 mm 3 m/s 763 mmHg 85%
    19:00 +7°C° 0 mm 3 m/s 763 mmHg 84%
    20:00 +7°C° 0 mm 3 m/s 763 mmHg 83%
    21:00 +7°C° 0 mm 3 m/s 762 mmHg 82%
    22:00 +7°C° 0 mm 3 m/s 762 mmHg 81%
    23:00 +6°C° 0 mm 2 m/s 762 mmHg 80%

    Demain, 15 Novembre, Jeudi

    Heure Température Précipitation Vent Pression Humidité
    00:00 +6°C° 0 mm 2 m/s 762 mmHg 79%
    01:00 +6°C° 0 mm 2 m/s 762 mmHg 78%
    02:00 +6°C° 0 mm 2 m/s 762 mmHg 77%
    03:00 +6°C° 0 mm 2 m/s 762 mmHg 77%
    04:00 +6°C° 0 mm 2 m/s 762 mmHg 76%
    05:00 +6°C° 0 mm 2 m/s 762 mmHg 75%
    06:00 +6°C° 0 mm 2 m/s 762 mmHg 74%
    07:00 +7°C° 0 mm 2 m/s 762 mmHg 71%
    08:00 +8°C° 0 mm 2 m/s 762 mmHg 68%
    09:00 +9°C° 0 mm 2 m/s 762 mmHg 65%
    10:00 +12°C° 0 mm 2 m/s 762 mmHg 62%
    11:00 +13°C° 0 mm 2 m/s 762 mmHg 59%
    12:00 +15°C° 0 mm 2 m/s 762 mmHg 56%
    13:00 +14°C° 0 mm 2 m/s 762 mmHg 60%
    14:00 +14°C° 0 mm 2 m/s 761 mmHg 64%
    15:00 +13°C° 0 mm 2 m/s 761 mmHg 68%
    16:00 +12°C° 0 mm 2 m/s 761 mmHg 72%
    17:00 +9°C° 0 mm 2 m/s 762 mmHg 76%
    18:00 +8°C° 0 mm 2 m/s 762 mmHg 80%
    19:00 +8°C° 0 mm 2 m/s 762 mmHg 81%
    20:00 +7°C° 0 mm 2 m/s 762 mmHg 82%
    21:00 +7°C° 0 mm 2 m/s 762 mmHg 83%
    22:00 +7°C° 0 mm 2 m/s 762 mmHg 84%
    23:00 +7°C° 0 mm 2 m/s 763 mmHg 85%

    Après-demain, 16 Novembre, Vendredi

    Heure Température Précipitation Vent Pression Humidité
    00:00 +7°C° 0 mm 2 m/s 763 mmHg 85%
    01:00 +7°C° 0 mm 2 m/s 763 mmHg 86%
    02:00 +6°C° 0 mm 2 m/s 763 mmHg 86%
    03:00 +6°C° 0 mm 2 m/s 763 mmHg 86%
    04:00 +6°C° 0 mm 2 m/s 763 mmHg 86%
    05:00 +7°C° 0 mm 1 m/s 763 mmHg 86%
    06:00 +7°C° 0 mm 1 m/s 764 mmHg 86%
    07:00 +8°C° 0 mm 1 m/s 764 mmHg 83%
    08:00 +9°C° 0 mm 1 m/s 764 mmHg 79%
    09:00 +10°C° 0 mm 1 m/s 764 mmHg 76%
    10:00 +11°C° 0 mm 1 m/s 764 mmHg 71%
    11:00 +13°C° 0 mm 1 m/s 764 mmHg 66%
    12:00 +14°C° 0 mm 1 m/s 764 mmHg 61%
    13:00 +14°C° 0 mm 2 m/s 764 mmHg 64%
    14:00 +13°C° 0 mm 2 m/s 764 mmHg 67%
    15:00 +13°C° 0 mm 2 m/s 764 mmHg 70%
    16:00 +10°C° 0 mm 2 m/s 764 mmHg 71%
    17:00 +9°C° 0 mm 2 m/s 764 mmHg 73%
    18:00 +8°C° 0 mm 2 m/s 764 mmHg 75%
    19:00 +7°C° 0 mm 2 m/s 764 mmHg 73%
    20:00 +7°C° 0 mm 2 m/s 764 mmHg 71%
    21:00 +7°C° 0 mm 2 m/s 764 mmHg 69%
    22:00 +6°C° 0 mm 2 m/s 764 mmHg 67%
    23:00 +6°C° 0 mm 2 m/s 764 mmHg 65%

    17 Novembre, Samedi

    Heure Température Précipitation Vent Pression Humidité
    00:00 +6°C° 0 mm 2 m/s 765 mmHg 64%
    01:00 +5°C° 0 mm 3 m/s 764 mmHg 64%
    02:00 +4°C° 0 mm 3 m/s 764 mmHg 63%
    03:00 +4°C° 0 mm 3 m/s 764 mmHg 63%
    04:00 +4°C° 0 mm 3 m/s 764 mmHg 64%
    05:00 +4°C° 0 mm 3 m/s 764 mmHg 64%
    06:00 +4°C° 0 mm 3 m/s 764 mmHg 64%
    07:00 +5°C° 0 mm 3 m/s 764 mmHg 62%
    08:00 +5°C° 0 mm 4 m/s 764 mmHg 60%
    09:00 +6°C° 0 mm 4 m/s 765 mmHg 58%
    10:00 +7°C° 0 mm 4 m/s 764 mmHg 55%
    11:00 +10°C° 0 mm 4 m/s 764 mmHg 52%
    12:00 +11°C° 0 mm 4 m/s 764 mmHg 48%
    13:00 +11°C° 0 mm 4 m/s 764 mmHg 51%
    14:00 +10°C° 0 mm 4 m/s 764 mmHg 53%
    15:00 +10°C° 0 mm 4 m/s 764 mmHg 56%
    16:00 +8°C° 0 mm 4 m/s 764 mmHg 58%
    17:00 +7°C° 0 mm 4 m/s 764 mmHg 60%
    18:00 +6°C° 0 mm 4 m/s 764 mmHg 62%
    19:00 +5°C° 0 mm 4 m/s 764 mmHg 63%
    20:00 +5°C° 0 mm 4 m/s 764 mmHg 65%
    21:00 +4°C° 0 mm 4 m/s 764 mmHg 67%
    22:00 +4°C° 0 mm 4 m/s 764 mmHg 67%
    23:00 +4°C° 0 mm 4 m/s 764 mmHg 68%

    18 Novembre, Dimanche

    Heure Température Précipitation Vent Pression Humidité
    00:00 +4°C° 0 mm 4 m/s 764 mmHg 69%
    01:00 +4°C° 0 mm 4 m/s 763 mmHg 68%
    02:00 +3°C° 0 mm 4 m/s 763 mmHg 67%
    03:00 +3°C° 0 mm 4 m/s 763 mmHg 66%
    04:00 +3°C° 0 mm 4 m/s 763 mmHg 64%
    05:00 +2°C° 0 mm 5 m/s 763 mmHg 63%
    06:00 +2°C° 0 mm 5 m/s 763 mmHg 61%
    07:00 +2°C° 0 mm 5 m/s 763 mmHg 59%
    08:00 +3°C° 0 mm 5 m/s 763 mmHg 56%
    09:00 +5°C° 0 mm 5 m/s 763 mmHg 54%
    10:00 +6°C° 0 mm 5 m/s 763 mmHg 50%
    11:00 +7°C° 0 mm 6 m/s 763 mmHg 47%
    12:00 +9°C° 0 mm 6 m/s 763 mmHg 44%
    13:00 +8°C° 0 mm 5 m/s 762 mmHg 45%
    14:00 +8°C° 0 mm 5 m/s 762 mmHg 46%
    15:00 +7°C° 0 mm 5 m/s 762 mmHg 47%
    16:00 +6°C° 0 mm 5 m/s 762 mmHg 48%
    17:00 +6°C° 0 mm 5 m/s 762 mmHg 48%
    18:00 +5°C° 0 mm 5 m/s 762 mmHg 49%
    19:00 +3°C° 0 mm 5 m/s 762 mmHg 49%
    20:00 +3°C° 0 mm 5 m/s 762 mmHg 50%
    21:00 +4°C° 0 mm 4 m/s 762 mmHg 50%
    22:00 +3°C° 0 mm 4 m/s 762 mmHg 52%
    23:00 +3°C° 0 mm 4 m/s 761 mmHg 53%

    19 Novembre, Lundi

    Heure Température Précipitation Vent Pression Humidité
    00:00 +3°C° 0 mm 4 m/s 761 mmHg 54%
    01:00 +3°C° 0 mm 4 m/s 761 mmHg 58%
    02:00 +2°C° 0 mm 5 m/s 761 mmHg 62%
    03:00 +1°C° 0 mm 5 m/s 760 mmHg 66%
    04:00 +1°C° 0 mm 5 m/s 760 mmHg 70%
    05:00 +1°C° 0 mm 5 m/s 760 mmHg 75%
    06:00 +1°C° 0 mm 5 m/s 760 mmHg 80%
    07:00 +2°C° 0 mm 5 m/s 760 mmHg 78%
    08:00 +2°C° 0 mm 6 m/s 760 mmHg 76%
    09:00 +3°C° 0 mm 6 m/s 760 mmHg 74%
    10:00 +4°C° 0 mm 6 m/s 760 mmHg 69%
    11:00 +4°C° 0 mm 6 m/s 760 mmHg 65%
    12:00 +5°C° 0 mm 6 m/s 759 mmHg 60%
    13:00 +5°C° 0 mm 6 m/s 759 mmHg 61%
    14:00 +5°C° 0 mm 5 m/s 759 mmHg 62%
    15:00 +5°C° 0 mm 5 m/s 758 mmHg 63%
    16:00 +4°C° 0 mm 4 m/s 758 mmHg 67%
    17:00 +3°C° 0 mm 4 m/s 758 mmHg 70%
    18:00 +3°C° 0 mm 4 m/s 758 mmHg 73%
    19:00 +1°C° 0 mm 4 m/s 758 mmHg 76%
    20:00 +1°C° 0 mm 4 m/s 758 mmHg 78%
    21:00 +1°C° 0 mm 4 m/s 758 mmHg 81%
    22:00 0°C° 0 mm 4 m/s 758 mmHg 84%
    23:00 0°C° 0 mm 4 m/s 758 mmHg 86%
    Voir plus